Flag for Canada Weather past 2 weeks in Coral Harbour, Nunavut, Canada

Now
10 °F

Passing clouds.


Feels Like: -3 °F
Forecast: 6 / 20 °F
Wind: 9 mph from Northwest

Location: Coral Harbour

Current Time: May 25, 2015 at 2:58:20 AM

Latest Report: May 25, 2015 at 2:00 AM


Visibility: 15 mi

Pressure: 29.63 "Hg

Humidity: 72%

Dew point: 3 °F

Location of Coral HarbourLocation

Historic Weather in Coral Harbour — Graph

°F

Coral Harbour temperature yesterday

Maximum temperature yesterday: 28 °F (at 1:00 PM)
Minimum temperature yesterday: 7 °F (at 2:00 AM)
Average temperature yesterday: 18 °F

Past Weeks' High & Low Weather Summary

 TemperatureHumidityPressure
High34 °F (May 13, 3:00 PM)100% (May 15, 9:00 PM)30.14 "Hg (May 15, 9:00 PM)
Low-2 °F (May 11, 4:00 AM)62% (May 11, 9:00 PM)29.35 "Hg (May 16, 2:00 AM)
Average20 °F78%29.84 "Hg
* Reported May 10 1:00 AM — May 25 1:00 AM, Coral Harbour, Weather by CustomWeather, © 2015

Note: Actual official high and low records may vary slightly from our data, if they occured in-between our weather recording intervals... More about our weather records

Advertising

Coral Harbour weather history for previous 24 hours

 ConditionsComfort  
Time TempWeatherWind HumidityBarometerVisibility
1:00 AM
Mon, May 25
3 °FPassing clouds.12 mph78%29.63 "Hg15 mi
12:00 AM7 °FPassing clouds.13 mph78%29.63 "Hg15 mi
11:00 PM
Sun, May 24
9 °FPassing clouds.2 mph78%29.64 "Hg15 mi
10:00 PM9 °FPassing clouds.21 mph78%29.62 "Hg15 mi
9:00 PM10 °FPassing clouds.30 mph79%29.60 "Hg15 mi
8:00 PM12 °FPassing clouds.30 mph79%29.61 "Hg15 mi
7:00 PM14 °FPassing clouds.24 mph79%29.60 "Hg15 mi
6:00 PM18 °FPassing clouds.26 mph73%29.59 "Hg15 mi
5:00 PM21 °FPassing clouds.30 mph74%29.56 "Hg15 mi
4:00 PM23 °FPartly sunny.24 mph74%29.54 "Hg15 mi
3:00 PM27 °FScattered clouds.18 mph74%29.55 "Hg15 mi
2:00 PM27 °FScattered clouds.24 mph74%29.54 "Hg15 mi
1:00 PM28 °FLight snow. Overcast.22 mph74%29.53 "Hg15 mi
12:00 PM27 °FLight snow. Overcast.22 mph80%29.52 "Hg15 mi
11:00 AM27 °FLight snow. Overcast.16 mph74%29.52 "Hg15 mi
10:00 AM23 °FLight snow. Overcast.15 mph80%29.53 "Hg12 mi
9:00 AM23 °FLow clouds.14 mph80%29.52 "Hg15 mi
8:00 AM23 °FOvercast.10 mph80%29.52 "Hg15 mi
7:00 AM23 °FOvercast.10 mph74%29.51 "Hg15 mi
6:00 AM21 °FOvercast.7 mph86%29.49 "Hg15 mi
5:00 AM18 °FOvercast.3 mph86%29.49 "Hg15 mi
4:00 AM12 °FPartly sunny.9 mph85%29.47 "Hg15 mi
3:00 AM7 °FPassing clouds.7 mph85%29.48 "Hg15 mi
2:00 AM7 °FPassing clouds.7 mph85%29.49 "Hg15 mi
Weather by CustomWeather, © 2015

See weather overviewHow to use our weather pages